Regional Weather Roundup
Issued by NWS

Home | Current Version | Previous Version | Text Only | Print | Product List | Glossary Off
Versions: 1 2 3 4 5 6 7 8 9 10 11 12 13 14 15 16 17 18 19 20 21 22 23 24 25 26 27 28 29 30 31 32 33 34 35 36 37 38 39 40 41 42 43 44 45 46 47 48 49 50

000
ASUS43 KMPX 271001
RWRMN
WEATHER ROUNDUP FOR MINNESOTA
NATIONAL WEATHER SERVICE TWIN CITIES/CHANHASSEN MN
500 AM CDT SAT AUG 27 2016


NOTE: "FAIR" INDICATES FEW OR NO CLOUDS BELOW 12,000 FEET WITH NO
SIGNIFICANT WEATHER AND/OR OBSTRUCTIONS TO VISIBILITY. N/A MEANS
CURRENT SKY AND/OR WEATHER CONDITIONS ARE NOT AVAILABLE.

MNZ060>063-068>070-271100-
   Twin Cities Metro

CITY           SKY/WX    TMP DP  RH WIND       PRES   REMARKS
TWIN CITIES    CLOUDY    64  58  80 SE6       30.06F
ST PAUL        LGT RAIN  63  58  83 E6        30.06F
CRYSTAL        CLOUDY    62  56  80 CALM      30.04F
BLAINE         CLOUDY    63  59  88 CALM      30.06F
LAKEVILLE      CLOUDY    59  59 100 CALM      30.05F
EDEN PRAIRIE   CLOUDY    64  58  80 E5        30.04F
LAKEVILLE      CLOUDY    59  59 100 CALM      30.05F
SOUTH ST PAUL  LGT RAIN  63  59  88 CALM      30.05F
LAKE ELMO      CLOUDY    61  59  94 CALM      30.07F
$$
MNZ001>005-007-008-013>017-022>024-027-028-271100-
   Northwest Minnesota

CITY           SKY/WX    TMP DP  RH WIND       PRES   REMARKS
BEMIDJI        CLOUDY    60  55  82 S5        30.05S
HALLOCK        MOCLDY    54  52  94 S7        29.96F
ROSEAU         PTCLDY    55  50  82 S7        29.99F
WARROAD        CLOUDY    55  52  88 S3        30.01S
THIEF RVR FALL CLOUDY    57  54  89 SE8       30.01F
CROOKSTON      LGT RAIN  57  55  94 SE5       30.00F
FOSSTON        CLOUDY    57  54  88 SE6       30.03F
DETROIT LAKES  DRIZZLE   61  55  82 S9        30.04S
MOORHEAD       CLOUDY    61  57  88 W7        30.01S
PARK RAPIDS    LGT RAIN  60  55  83 SE6       30.05S
MAHNOMEN       CLOUDY    60  57  88 SE6       30.02F
$$
MNZ006-009>011-018-025>026-271100-
   North Central Minnesota

CITY           SKY/WX    TMP DP  RH WIND       PRES   REMARKS
BAUDETTE       PTCLDY    55  52  89 S5        30.02S
FLAG ISLAND    CLOUDY    64  55  72 CALM      29.98S HAZE
INTL FALLS     CLOUDY    54  52  93 CALM      30.05S
WASKISH        CLOUDY    57  55  94 S3        30.04S
BIG FORK       CLOUDY    57  55  94 CALM      30.07S
LONGVILLE      CLOUDY    57  55  94 CALM      30.07S
GRAND RAPIDS   CLOUDY    57  55  93 S3        30.10S
ORR            CLOUDY    57  52  82 CALM      30.06S
COOK           CLOUDY    57  55  94 SE5       30.09S
WALKER         LGT RAIN  60  55  83 SE3       30.05F
$$
MNZ012-019>021-037-271100-
   Northeast Minnesota

CITY           SKY/WX    TMP DP  RH WIND       PRES   REMARKS
DULUTH         CLOUDY    59  54  83 CALM      30.11S
ELY            CLOUDY    55  54  94 CALM      30.10S
HIBBING        CLOUDY    53  52  96 CALM      30.10S
EVELETH        DRIZZLE   55  54  96 CALM      30.11S
DULUTH HARBOR  CLOUDY    61  55  82 CALM      30.11S
TWO HARBORS    PTCLDY    55  52  88 CALM      30.10S
SILVER BAY     CLOUDY    52  50  93 CALM      30.10S
G MARAIS ARPRT MOCLDY    55  52  88 CALM      30.14F
$$
MNZ029>031-032-039>041-046>048-054>057-064-271100-
   West Central Minnesota

CITY           SKY/WX    TMP DP  RH WIND       PRES   REMARKS
FERGUS FALLS   CLOUDY    61  57  88 S7        30.04F
WHEATON        CLOUDY    63  61  94 SE6       30.03F
MORRIS         CLOUDY    61  57  88 E3        30.02F
ALEXANDRIA     CLOUDY    60  56  86 SE7       30.06F
ELBOW LAKE     CLOUDY    60  57  92 E7        30.03F
GLENWOOD       CLOUDY    57  57 100 CALM      30.06S
APPLETON       CLOUDY    63  57  82 CALM      30.02F
BENSON         CLOUDY    61  55  82 S6        30.03S
ORTONVILLE     DRIZZLE   61  57  88 CALM      30.02S
MADISON        CLOUDY    61  59  94 SE6       30.02F
WILLMAR        MOCLDY    61  59  94 E6        30.05S
$$
MNZ033>034-036-042>043-049>051-058-059-271100-
   Central Minnesota

CITY           SKY/WX    TMP DP  RH WIND       PRES   REMARKS
ST CLOUD       CLOUDY    59  57  93 NE3       30.05F
SAUK CENTRE    CLOUDY    59  57  94 CALM      30.06S
PAYNESVILLE    CLOUDY    60  59  96 SE3       30.06S
AITKIN         MIX PCPN  59  54  82 CALM      30.07S
PINE RIVER     CLOUDY    57  57 100 CALM      30.10S
BRAINERD       CLOUDY    59  56  89 SE6       30.07S
STAPLES        CLOUDY    57  55  94 SE5       30.06S
LONG PRAIRIE   LGT RAIN  57  55  94 CALM      30.06F
LITTLE FALLS   LGT RAIN  59  54  82 CALM      30.06F
LITCHFIELD     CLOUDY    63  59  88 CALM      30.06S
BUFFALO        CLOUDY    60  56  85 CALM      30.06F
MAPLE LAKE     CLOUDY    62  59  92 CALM      30.06F
HUTCHINSON     CLOUDY    61  59  95 CALM      30.06R
$$
MNZ037-044-045-052-053-271100-
   East Central Minnesota

CITY           SKY/WX    TMP DP  RH WIND       PRES   REMARKS
PRINCETON      CLOUDY    61  57  88 CALM      30.07F
MORA           CLOUDY    55  54  94 CALM      30.10S
CAMBRIDGE      CLOUDY    63  54  72 CALM      30.05F
RUSH CITY      PTCLDY    56  55  94 CALM      30.09R
MOOSE LAKE     CLOUDY    54  52  94 CALM      30.08F
HINCKLEY       FAIR      54  54 100 CALM      30.09F
CLOQUET        PTCLDY    55  54  94 CALM      30.11S
MCGREGOR       CLOUDY    55  54  94 CALM      30.09S
$$
MNZ071>073-080-081-089-090-097-098-271100-
   Southwest Minnesota

CITY           SKY/WX    TMP DP  RH WIND       PRES   REMARKS
MONTEVIDEO     CLOUDY    61  59  94 S3        30.05S
GRANITE FALLS  CLOUDY    62  60  93 SE3       30.05S
CANBY          CLOUDY    61  60  94 E5        30.03F
MARSHALL       LGT RAIN  60  59  96 S9        30.02F
REDWOOD FALLS  LGT RAIN  61  58  90 SE3       30.04R
OLIVIA         RAIN      59  55  88 SE3       30.04R
PIPESTONE      CLOUDY    61  57  88 SE1       30.03S
WINDOM         LGT RAIN  61  59  94 CALM      30.03F
WORTHINGTON    CLOUDY    60  58  92 E3        30.02F
JACKSON          N/A     61  55  82 SE5       30.04R
TRACY          RAIN      62  61  96 S3        30.03F
SLAYTON        CLOUDY    59  59 100 E5        30.04F
$$
MNZ065>067-074>077-082>085-091>093-271100-
   South Central Minnesota

CITY           SKY/WX    TMP DP  RH WIND       PRES   REMARKS
MANKATO        CLOUDY    63  57  82 E5        30.03F
NEW ULM          N/A     63  61  94 CALM      30.03S
ST JAMES       CLOUDY    57  55  94 CALM      30.04S
FAIRMONT       LGT RAIN  61  59  93 SE5       30.03F
GLENCOE        CLOUDY    61  60  96 CALM      30.04F
FARIBAULT      CLOUDY    63  59  88 NE3       30.05F
OWATONNA       CLOUDY    63  57  82 E6        30.04F
WASECA         CLOUDY    61  59  94 E6        30.06R
ALBERT LEA     CLOUDY    61  59  94 CALM      30.04S
$$
MNZ078>079-086>088-094>096-271100-
   Southeast Minnesota

CITY           SKY/WX    TMP DP  RH WIND       PRES   REMARKS
ROCHESTER      CLOUDY    60  59  96 E8        30.07F
RED WING       CLOUDY    63  59  88 E6        30.05F
DODGE CENTER   MOCLDY    59  57  94 E6        30.05F
WINONA         CLOUDY    61  59  94 SE7       30.06F
AUSTIN         CLOUDY    59  55  88 CALM      30.05S
PRESTON        CLOUDY    59  57  92 CALM      30.07R
$$
ABBREVIATIONS USED IN REMARKS
   TC - TEMPERATURES IN CELSIUS
  WCI - WIND CHILL INDEX
   HX - HEAT INDEX
  VSB - VISIBILITY
$$




USA.gov is the U.S. government's official web portal to all federal, state and local government web resources and services.